Location: *
(34.0486°S, 61.7880°E)
Time: 13:06:49
(UTC+00:00)

Cosmos 1190 Rocket - Pass Details

Date: 01 April 2020
Orbit: 757 x 779 km, 74.1° (Epoch: 04 June)

Event Time Altitude Azimuth Distance (km) Brightness Sun altitude
Rises 14:43:50 0° 189° (S) 3,277 7.4 -12.5°
Reaches altitude 10° 14:46:22 10° 181° (S) 2,346 6.6 -13.0°
Maximum altitude 14:51:22 40° 112° (ESE) 1,150 4.5 -14.1°
Enters shadow 14:55:29 14° 47° (NE) 2,039 5.7 -14.9°
